Tracking 28052 objects as of 22-Sep-2023
HD Live streaming from Space Station
objects crossing your sky now

COSMOS 839 DEB

Track COSMOS 839 DEB now!
10-day predictions


NORAD ID: 10465
Int'l Code: 1976-067AJ
Perigee: 865.4 km
Apogee: 2,007.5 km
Inclination: 65.6 °
Period: 114.4 minutes
Semi major axis: 7807 km
RCS: 0.0294 m2 (small)
Launch date: July 8, 1976
Source: Commonwealth of Independent States (former USSR) (CIS)
Launch site: PLESETSK MISSILE AND SPACE COMPLEX (PKMTR)

Note: This is SATELLITE DEBRIS
Your satellite tracking list
Your tracking list is empty




NASA's NSSDC Master Catalog

Two Line Element Set (TLE):
1 10465U 76067AJ  23264.68783804  .00000332  00000-0  82948-3 0  9995
2 10465  65.5686  51.0168 0731431  89.3618 279.1067 12.58450764440551
Source of the keplerian elements: AFSPC